Location: Briarstone Lake
(43.1454°N, 93.2359°W)
Time: 08:59:46
(UTC+00:00)

BlueWalker 3 - Pass Details

Date: 01 February 2026
Orbit: 450 x 461 km, 53.2° (Epoch: 11 February)

Event Time Altitude Azimuth Distance (km) Brightness Sun altitude
Rises 01:46:27 0° 308° (NW) 2,459 6.2 -26.1°
Reaches altitude 10° 01:48:51 10° 323° (NW) 1,584 4.9 -26.5°
Enters shadow 01:49:36 14° 331° (NNW) 1,349 4.4 -26.7°
